When you browse on this site, cookies collect data to enhance your experience and personalize the content and advertising you see.
Visit our Privacy Policy to learn more. By continuing to use the site, you agree to this use of cookies and data.
  • In Romania
  • List of Countries
  • For 7 days
  • Water Temperature
  • Satellite Maps
  • Weather Map
  • Weather Widgets
  • user-avatar
    Login

    Hourly Weather Uyna

    Today, 26 May, Sunday

    Time Temperature Precipitation Wind Pressure Humidity
    00:00 +22°C° 0.1 mm 0 mps 740 mmHg 99%
    01:00 +21°C° 0 mm 0 mps 739 mmHg 99%
    02:00 +21°C° 0 mm 0 mps 739 mmHg 99%
    03:00 +21°C° 0 mm 0 mps 739 mmHg 99%
    04:00 +21°C° 0.1 mm 0 mps 739 mmHg 99%
    05:00 +21°C° 0.1 mm 0 mps 739 mmHg 99%
    06:00 +21°C° 0.1 mm 0 mps 739 mmHg 99%
    07:00 +22°C° 0.1 mm 0 mps 740 mmHg 97%
    08:00 +23°C° 0.1 mm 0 mps 740 mmHg 96%
    09:00 +24°C° 0.1 mm 0 mps 740 mmHg 94%
    10:00 +25°C° 0.1 mm 0 mps 740 mmHg 84%
    11:00 +26°C° 0.1 mm 0 mps 740 mmHg 74%
    12:00 +28°C° 0.1 mm 0 mps 739 mmHg 63%
    13:00 +28°C° 0.1 mm 0 mps 739 mmHg 64%
    14:00 +28°C° 0.1 mm 0 mps 739 mmHg 64%
    15:00 +28°C° 0.1 mm 0 mps 738 mmHg 64%
    16:00 +26°C° 0.4 mm 0 mps 738 mmHg 73%
    17:00 +25°C° 0.4 mm 0 mps 738 mmHg 82%
    18:00 +23°C° 0.4 mm 0 mps 738 mmHg 90%
    19:00 +23°C° 0.4 mm 0 mps 739 mmHg 93%
    20:00 +22°C° 0.4 mm 0 mps 739 mmHg 95%
    21:00 +22°C° 0.4 mm 0 mps 740 mmHg 97%
    22:00 +22°C° 0.1 mm 0 mps 740 mmHg 98%
    23:00 +22°C° 0.1 mm 0 mps 740 mmHg 98%

    Tomorrow, 27 May, Monday

    Time Temperature Precipitation Wind Pressure Humidity
    00:00 +22°C° 0.1 mm 0 mps 740 mmHg 99%
    01:00 +22°C° 0.1 mm 0 mps 739 mmHg 99%
    02:00 +21°C° 0.1 mm 0 mps 739 mmHg 99%
    03:00 +21°C° 0.1 mm 0 mps 738 mmHg 99%
    04:00 +21°C° 0 mm 0 mps 738 mmHg 99%
    05:00 +22°C° 0 mm 0 mps 739 mmHg 98%
    06:00 +22°C° 0 mm 0 mps 739 mmHg 98%
    07:00 +24°C° 0 mm 0 mps 739 mmHg 89%
    08:00 +26°C° 0 mm 0 mps 739 mmHg 79%
    09:00 +28°C° 0 mm 0 mps 740 mmHg 70%
    10:00 +29°C° 0.2 mm 0 mps 739 mmHg 68%
    11:00 +29°C° 0.2 mm 0 mps 739 mmHg 66%
    12:00 +32°C° 0.2 mm 1 mps 738 mmHg 64%
    13:00 +31°C° 1.5 mm 1 mps 738 mmHg 73%
    14:00 +30°C° 1.5 mm 1 mps 737 mmHg 83%
    15:00 +27°C° 1.5 mm 0 mps 736 mmHg 92%
    16:00 +26°C° 1.5 mm 0 mps 737 mmHg 94%
    17:00 +25°C° 1.5 mm 0 mps 737 mmHg 95%
    18:00 +24°C° 1.5 mm 0 mps 737 mmHg 97%
    19:00 +23°C° 0.7 mm 0 mps 738 mmHg 97%
    20:00 +23°C° 0.7 mm 0 mps 738 mmHg 98%
    21:00 +22°C° 0.7 mm 0 mps 739 mmHg 98%
    22:00 +22°C° 0.2 mm 0 mps 738 mmHg 98%
    23:00 +22°C° 0.2 mm 0 mps 738 mmHg 98%

    Day after tomorrow, 28 May, Tuesday

    Time Temperature Precipitation Wind Pressure Humidity
    00:00 +22°C° 0.2 mm 0 mps 738 mmHg 99%
    01:00 +22°C° 0 mm 0 mps 737 mmHg 99%
    02:00 +22°C° 0 mm 0 mps 737 mmHg 99%
    03:00 +22°C° 0 mm 0 mps 736 mmHg 99%
    04:00 +22°C° 0 mm 0 mps 736 mmHg 99%
    05:00 +22°C° 0 mm 0 mps 736 mmHg 99%
    06:00 +22°C° 0 mm 0 mps 737 mmHg 98%
    07:00 +24°C° 0 mm 0 mps 737 mmHg 92%
    08:00 +25°C° 0 mm 0 mps 737 mmHg 85%
    09:00 +27°C° 0 mm 0 mps 738 mmHg 78%
    10:00 +28°C° 0.9 mm 0 mps 738 mmHg 78%
    11:00 +28°C° 0.9 mm 0 mps 737 mmHg 78%
    12:00 +31°C° 0.9 mm 1 mps 737 mmHg 78%
    13:00 +30°C° 1.7 mm 1 mps 736 mmHg 83%
    14:00 +29°C° 1.7 mm 1 mps 736 mmHg 88%
    15:00 +28°C° 1.7 mm 1 mps 735 mmHg 93%
    16:00 +26°C° 1 mm 0 mps 735 mmHg 94%
    17:00 +25°C° 1 mm 0 mps 736 mmHg 96%
    18:00 +24°C° 1 mm 0 mps 736 mmHg 97%
    19:00 +23°C° 0.1 mm 0 mps 737 mmHg 97%
    20:00 +23°C° 0.1 mm 0 mps 737 mmHg 97%
    21:00 +23°C° 0.1 mm 0 mps 737 mmHg 98%
    22:00 +22°C° 0 mm 0 mps 737 mmHg 98%
    23:00 +22°C° 0 mm 0 mps 737 mmHg 98%

    29 May, Wednesday

    Time Temperature Precipitation Wind Pressure Humidity
    00:00 +22°C° 0 mm 0 mps 737 mmHg 99%
    01:00 +22°C° 0 mm 0 mps 737 mmHg 99%
    02:00 +22°C° 0 mm 0 mps 736 mmHg 99%
    03:00 +22°C° 0 mm 0 mps 736 mmHg 99%
    04:00 +22°C° 0 mm 0 mps 736 mmHg 98%
    05:00 +22°C° 0 mm 0 mps 736 mmHg 98%
    06:00 +22°C° 0 mm 0 mps 736 mmHg 97%
    07:00 +25°C° 0 mm 0 mps 737 mmHg 86%
    08:00 +27°C° 0 mm 0 mps 737 mmHg 74%
    09:00 +30°C° 0 mm 0 mps 738 mmHg 62%
    10:00 +32°C° 0.1 mm 0 mps 737 mmHg 58%
    11:00 +33°C° 0.1 mm 0 mps 737 mmHg 53%
    12:00 +35°C° 0.1 mm 0 mps 736 mmHg 49%
    13:00 +33°C° 1.8 mm 0 mps 735 mmHg 61%
    14:00 +31°C° 1.8 mm 0 mps 735 mmHg 74%
    15:00 +29°C° 1.8 mm 0 mps 734 mmHg 86%
    16:00 +28°C° 3.1 mm 0 mps 735 mmHg 90%
    17:00 +26°C° 3.1 mm 0 mps 735 mmHg 93%
    18:00 +24°C° 3.1 mm 0 mps 736 mmHg 96%
    19:00 +24°C° 1.5 mm 0 mps 736 mmHg 97%
    20:00 +24°C° 1.5 mm 0 mps 737 mmHg 97%
    21:00 +23°C° 1.5 mm 0 mps 738 mmHg 98%
    22:00 +23°C° 0.3 mm 0 mps 737 mmHg 98%
    23:00 +23°C° 0.3 mm 0 mps 737 mmHg 98%

    30 May, Thursday

    Time Temperature Precipitation Wind Pressure Humidity
    00:00 +23°C° 0.3 mm 0 mps 737 mmHg 98%
    01:00 +23°C° 0.1 mm 0 mps 736 mmHg 98%
    02:00 +23°C° 0.1 mm 0 mps 736 mmHg 98%
    03:00 +22°C° 0.1 mm 0 mps 735 mmHg 98%
    04:00 +23°C° 0 mm 0 mps 736 mmHg 98%
    05:00 +23°C° 0 mm 0 mps 736 mmHg 98%
    06:00 +23°C° 0 mm 0 mps 736 mmHg 97%
    07:00 +25°C° 0 mm 0 mps 737 mmHg 85%
    08:00 +28°C° 0 mm 0 mps 737 mmHg 73%
    09:00 +32°C° 0 mm 1 mps 738 mmHg 61%
    10:00 +33°C° 0.2 mm 1 mps 737 mmHg 58%
    11:00 +34°C° 0.2 mm 1 mps 737 mmHg 56%
    12:00 +35°C° 0.2 mm 1 mps 737 mmHg 53%
    13:00 +34°C° 1.4 mm 1 mps 736 mmHg 64%
    14:00 +32°C° 1.4 mm 1 mps 735 mmHg 76%
    15:00 +31°C° 1.4 mm 1 mps 735 mmHg 87%
    16:00 +30°C° 1.6 mm 1 mps 735 mmHg 90%
    17:00 +26°C° 1.6 mm 0 mps 735 mmHg 93%
    18:00 +25°C° 1.6 mm 0 mps 735 mmHg 96%
    19:00 +24°C° 1.1 mm 0 mps 736 mmHg 96%
    20:00 +24°C° 1.1 mm 0 mps 736 mmHg 96%
    21:00 +24°C° 1.1 mm 0 mps 737 mmHg 96%
    22:00 +24°C° 0.5 mm 0 mps 737 mmHg 97%
    23:00 +23°C° 0.5 mm 0 mps 737 mmHg 97%

    31 May, Friday

    Time Temperature Precipitation Wind Pressure Humidity
    00:00 +23°C° 0.5 mm 0 mps 736 mmHg 97%
    01:00 +23°C° 0.6 mm 0 mps 736 mmHg 97%
    02:00 +23°C° 0.6 mm 0 mps 736 mmHg 97%
    03:00 +23°C° 0.6 mm 0 mps 735 mmHg 97%
    04:00 +23°C° 0.2 mm 0 mps 736 mmHg 97%
    05:00 +23°C° 0.2 mm 0 mps 736 mmHg 97%
    06:00 +23°C° 0.2 mm 0 mps 736 mmHg 97%
    07:00 +24°C° 0.1 mm 0 mps 737 mmHg 94%
    08:00 +25°C° 0.1 mm 0 mps 737 mmHg 90%
    09:00 +26°C° 0.1 mm 0 mps 737 mmHg 87%
    10:00 +28°C° 0.5 mm 0 mps 737 mmHg 79%
    11:00 +30°C° 0.5 mm 0 mps 737 mmHg 70%
    12:00 +34°C° 0.5 mm 1 mps 736 mmHg 62%
    13:00 +30°C° 2.1 mm 0 mps 736 mmHg 72%
    14:00 +29°C° 2.1 mm 0 mps 735 mmHg 83%
    15:00 +27°C° 2.1 mm 0 mps 735 mmHg 93%
    16:00 +26°C° 1.4 mm 0 mps 735 mmHg 94%
    17:00 +25°C° 1.4 mm 0 mps 736 mmHg 95%
    18:00 +24°C° 1.4 mm 0 mps 736 mmHg 96%
    19:00 +24°C° 1.1 mm 0 mps 737 mmHg 96%
    20:00 +24°C° 1.1 mm 0 mps 737 mmHg 97%
    21:00 +23°C° 1.1 mm 0 mps 738 mmHg 97%
    22:00 +23°C° 0.7 mm 0 mps 737 mmHg 98%
    23:00 +23°C° 0.7 mm 0 mps 737 mmHg 98%
    Show more